Flag for Mexico Weather past 2 weeks in Guadalajara, Jalisco, Mexico

Now
64 °F

Passing clouds.


Feels Like: 64 °F
Forecast: 57 / 86 °F
Wind: 6 mph from West

Location: Don Miguel / Guadalaj

Current Time: Apr 18, 2015 at 3:27:04 AM

Latest Report: Apr 18, 2015 at 2:52 AM


Visibility: 10 mi

Pressure: 30.14 "Hg

Humidity: 52%

Dew point: 46 °F

Location of GuadalajaraLocation

Historic Weather in Guadalajara — Graph

°F

Guadalajara temperature yesterday

Maximum temperature yesterday: 86 °F (at 4:50 PM)
Minimum temperature yesterday: 55 °F (at 7:52 AM)
Average temperature yesterday: 72 °F

Past Weeks' High & Low Weather Summary

 TemperatureHumidityPressure
High90 °F (Apr 7, 5:46 PM)88% (Apr 10, 6:49 AM)30.25 "Hg (Apr 10, 6:49 AM)
Low52 °F (Apr 7, 7:56 AM)15% (Apr 6, 3:47 PM)29.56 "Hg (Apr 10, 9:51 AM)
Average72 °F47%30.02 "Hg
* Reported Apr 3 12:45 AM — Apr 18 1:56 AM, Guadalajara, Weather by CustomWeather, © 2015

Note: Actual official high and low records may vary slightly from our data, if they occured in-between our weather recording intervals... More about our weather records

Advertising

Guadalajara weather history for previous 24 hours

 ConditionsComfort  
Time TempWeatherWind HumidityBarometerVisibility
1:56 AM
Sat, Apr 18
64 °FPassing clouds.3 mph56%30.14 "Hg10 mi
12:54 AM66 °FPassing clouds.6 mph52%29.80 "Hg10 mi
11:51 PM
Fri, Apr 17
66 °FPassing clouds.6 mph46%30.14 "Hg10 mi
10:55 PM70 °FPassing clouds.8 mph35%30.13 "Hg10 mi
9:51 PM72 °FPassing clouds.7 mph33%29.80 "Hg10 mi
8:46 PM75 °FBroken clouds.8 mph31%30.09 "Hg10 mi
7:49 PM79 °FBroken clouds.16 mph28%30.07 "Hg10 mi
5:51 PM84 °FBroken clouds.6 mph16%30.06 "Hg10 mi
4:50 PM86 °FPartly sunny.10 mph15%30.07 "Hg10 mi
3:51 PM84 °FPartly sunny.18 mph15%29.76 "Hg10 mi
2:55 PM84 °FPartly sunny.10 mph15%30.14 "Hg10 mi
1:50 PM82 °FPartly sunny.No wind20%30.16 "Hg8 mi
12:47 PM79 °FPartly sunny.6 mph30%29.85 "Hg8 mi
11:48 AM77 °FPartly sunny.3 mph42%30.22 "Hg8 mi
10:50 AM72 °FPartly sunny.3 mph57%30.21 "Hg7 mi
9:52 AM70 °FBroken clouds.3 mph60%29.90 "Hg7 mi
8:51 AM61 °FPartly sunny.No wind77%30.20 "Hg6 mi
7:52 AM55 °FPartly cloudy.No wind82%30.16 "Hg8 mi
5:46 AM57 °FPassing clouds.No wind82%30.15 "Hg10 mi
4:49 AM57 °FPassing clouds.No wind82%30.15 "Hg10 mi
Weather by CustomWeather, © 2015

See weather overviewHow to use our weather pages